Flag for U.S.A. Weather past 2 weeks in Pomona, California, U.S.A.

Now
71 °F

Overcast.


Feels Like: 75 °F
Forecast: 63 / 82 °F
Wind: 6 mph from Southwest

Location: Chino Airport

Current Time: Sep 2, 2015 at 10:12:17 AM

Latest Report: Sep 2, 2015 at 8:53 AM


Visibility: 6 mi

Pressure: 29.98 "Hg

Humidity: 68%

Dew point: 60 °F

Location of PomonaLocation

Historic Weather in Pomona — Graph

°F

Pomona temperature yesterday

Maximum temperature yesterday: 87 °F (at 1:53 PM)
Minimum temperature yesterday: 67 °F (at 12:53 AM)
Average temperature yesterday: 74 °F

Past Weeks' High & Low Weather Summary

 TemperatureHumidityPressure
High106 °F (Aug 28, 1:53 PM)94% (Aug 24, 6:04 AM)29.99 "Hg (Aug 24, 6:04 AM)
Low63 °F (Aug 19, 5:53 AM)14% (Aug 28, 1:53 PM)29.79 "Hg (Aug 28, 4:53 PM)
Average79 °F59%29.90 "Hg
* Reported Aug 18 7:53 AM — Sep 2 7:53 AM, Pomona, Weather by CustomWeather, © 2015

Note: Actual official high and low records may vary slightly from our data, if they occured in-between our weather recording intervals... More about our weather records

Advertising

Pomona weather history for previous 24 hours

 ConditionsComfort  
Time TempWeatherWind HumidityBarometerVisibility
7:53 AM
Wed, Sep 2
70 °FOvercast.3 mph73%29.98 "Hg5 mi
6:53 AM69 °FOvercast.No wind76%29.97 "Hg6 mi
5:53 AM69 °FOvercast.5 mph76%29.96 "Hg7 mi
4:53 AM69 °FOvercast.3 mph76%29.95 "Hg8 mi
3:53 AM69 °FOvercast.3 mph76%29.95 "Hg9 mi
2:53 AM69 °FOvercast.3 mph76%29.96 "Hg9 mi
1:53 AM69 °FOvercast.7 mph76%29.96 "Hg9 mi
12:53 AM67 °FPassing clouds.3 mph81%29.97 "Hg9 mi
12:03 AM68 °FPassing clouds.6 mph76%29.98 "Hg9 mi
11:53 PM
Tue, Sep 1
67 °FPassing clouds.7 mph79%29.96 "Hg9 mi
10:53 PM68 °FClear.6 mph76%29.95 "Hg9 mi
9:53 PM70 °FClear.12 mph71%29.95 "Hg10 mi
8:53 PM71 °FClear.9 mph71%29.93 "Hg10 mi
7:53 PM72 °FPartly sunny.10 mph68%29.90 "Hg10 mi
6:53 PM75 °FBroken clouds.14 mph62%29.88 "Hg10 mi
5:53 PM78 °FBroken clouds.15 mph56%29.86 "Hg10 mi
4:53 PM82 °FPartly sunny.14 mph46%29.86 "Hg10 mi
3:53 PM87 °FPartly sunny.12 mph37%29.85 "Hg10 mi
1:53 PM87 °FPartly sunny.N/A33%29.88 "Hg10 mi
12:53 PM85 °FPartly sunny.7 mph39%29.90 "Hg10 mi
11:53 AM82 °FPartly sunny.5 mph44%29.92 "Hg10 mi
10:53 AM77 °FPartly sunny.6 mph54%29.94 "Hg8 mi
Weather by CustomWeather, © 2015

See weather overviewHow to use our weather pages